Location: Morehouse Lake Observatory
(43.3628°N, 74.6770°W)
Time: 15:38:25
(UTC-05:00)

Envisat - Pass Details

Date: 22 October 2019
Orbit: 764 x 766 km, 98.1° (Epoch: 14 November)

Event Time Altitude Azimuth Distance (km) Brightness Sun altitude
Rises 18:54:48 0° 163° (SSE) 3,218 6.1 -9.8°
Reaches altitude 10° 18:57:05 10° 163° (SSE) 2,296 5.4 -10.2°
Maximum altitude 19:02:09 85° 76° (ENE) 775 3.0 -11.1°
Drops below altitude 10° 19:07:16 10° 348° (NNW) 2,311 5.6 -12.0°
Sets 19:09:34 0° 348° (NNW) 3,242 6.4 -12.4°
